Regional Weather Roundup
Issued by NWS Charleston, SC

Current Version | Previous Version | Text Only | Print | Product List | Glossary Off
Versions: 1 2 3 4 5 6 7 8 9 10 11 12 13 14 15 16 17 18 19 20 21 22 23 24 25 26 27 28 29 30 31 32 33 34 35 36 37 38 39 40 41 42 43 44 45 46 47 48 49 50

237
ASUS42 KCHS 291828
RWRCHS

REGIONAL WEATHER ROUNDUP
NATIONAL WEATHER SERVICE CHARLESTON SC
200 PM EDT MON AUG 29 2016

NOTE: "FAIR" INDICATES FEW OR NO CLOUDS BELOW 12,000 FEET WITH NO
SIGNIFICANT WEATHER AND/OR OBSTRUCTIONS TO VISIBILITY.

NOT ALL STATIONS ARE QUALITY CONTROLLED. USE DATA WITH CAUTION...
ESPECIALLY DEWPOINT OBSERVATIONS.

SCZ027-030-031-034>040-042>050-291900-
...SOUTHEAST SOUTH CAROLINA...

CITY           SKY/WX    TMP DP  RH WIND       PRES   REMARKS
N CHARLESTON   PTSUNNY   89  73  59 NE10      30.06F HX  97
6HR MIN TEMP:  76; 6HR MAX TEMP:  89;

WATERFRONT PRK   N/A     83  77  81 NE9       30.05S HX  92
MOUNT PLEASANT FAIR      84  77  79 CALM      30.06F HX  94
JOHNS ISLAND   MOCLDY    86  75  70 E10       30.05F HX  95
PINOPOLIS        N/A     82  75  78 NE7       30.02F
MONCKS CORNER  FAIR      86  73  66 N5        30.06F HX  93
SUMMERVILLE    NOT AVBL
BEAUFORT MCAS  PTSUNNY   89  74  60 VRB3      30.07F HX  98
6HR MIN TEMP:  76; 6HR MAX TEMP:  89;

BEAUFORT ARPT  FAIR      88  73  62 N8        30.06S HX  96
HILTON HEAD IS PTSUNNY   91  77  62 E8        30.07S HX 105
WALTERBORO     CLOUDY    90  72  55 N6        30.07F HX  96
ALLENDALE      MOCLDY    86  72  62 VRB5      30.06F HX  92

...SOUTHERN MIDLANDS AND PEE DEE...

CITY           SKY/WX    TMP DP  RH WIND       PRES   REMARKS
GEORGETOWN     FAIR      81  73  78 CALM      30.08F
KINGSTREE      MOCLDY    88  68  51 N5        30.06F HX  91
ORANGEBURG     MOSUNNY   89  71  55 NE8       30.08F HX  95
6HR MIN TEMP:  75; 6HR MAX TEMP:  90;

BARNWELL       NOT AVBL
AIKEN          MOCLDY    88  70  55 N9        30.13F HX  92
MANNING        FAIR      88  72  58 N5        30.08F HX  94
COLUMBIA       PTSUNNY   87  73  62 S3        30.09F HX  94
6HR MIN TEMP:  78; 6HR MAX TEMP:  90;

SUMTER         PTSUNNY   90  69  50 NE8       30.07F HX  95
6HR MIN TEMP:  76; 6HR MAX TEMP:  90; 6HR PCP: TRACE;

FLORENCE       MOSUNNY   91  71  51 N7        30.08F HX  97
6HR MIN TEMP:  77; 6HR MAX TEMP:  91; 6HR PCP: TRACE;

MYRTLE BEACH   PTSUNNY   88  72  58 E9        30.09S HX  94
N MYRTLE BEACH TSTM      79  75  87 S9        30.08R
6HR MIN TEMP:  77; 6HR MAX TEMP:  85; 6HR PCP: TRACE;


$$

GAZ063-065-086>088-099>101-113>116-118-119-134>141-150-291900-
...SOUTHEAST GEORGIA...

CITY           SKY/WX    TMP DP  RH WIND       PRES   REMARKS
SAVANNAH ARPT  CLOUDY    90  69  50 NE10      30.06S HX  94
6HR MIN TEMP:  76; 6HR MAX TEMP:  92;

HUNTER AAF     PTSUNNY   88  80  76 NE7       30.03F HX 104
6HR MIN TEMP:  76; 6HR MAX TEMP:  88;

FORT STEWART   PTSUNNY   88  73  62 E8        30.02S THUNDER HX  96
6HR MIN TEMP:  75; 6HR MAX TEMP:  89;

STATESBORO     SUNNY     91  71  52 NE10G17   30.07S HX  97
SYLVANIA       NOT AVBL
CLAXTON        FAIR      90  72  55 N10       30.05S HX  98

...CSRA...CENTRAL AND FAR SOUTHEAST GEORGIA...

CITY           SKY/WX    TMP DP  RH WIND       PRES   REMARKS
THOMSON        PTSUNNY   90  73  57 MISG      30.14F HX  98
AUGUSTA-BUSH   PTSUNNY   93  68  43 NE13      30.07F HX  97
6HR MIN TEMP:  77; 6HR MAX TEMP:  93;

AUGUSTA-DANIEL PTSUNNY   91  69  48 NE7       30.10F HX  96
SWAINSBORO     FAIR      91  68  46 E7        30.07F HX  95
VIDALIA        MOSUNNY   91  72  52 CALM      30.05F HX  98
EASTMAN        FAIR      94  51  23 E8        30.07F HX  91
HAZLEHURST     FAIR      94  69  44 NE13      30.03F HX  99
ALMA           PTSUNNY   90  71  53 VRB5      30.03F HX  96
6HR MIN TEMP:  74; 6HR MAX TEMP:  91;

WAYCROSS         N/A     95  76  55 E12       30.02S HX 108
JESUP          FAIR      82  81  94 NE5       30.03F HX  95
BAXLEY         PTSUNNY   91  75  59 E10       30.03F HX 102
BRUNSWICK      MOSUNNY   90  77  66 E18       30.04S HX 102
SAINT SIMONS   MOSUNNY   88  75  65 E15       30.04S HX  97
6HR MIN TEMP:  83; 6HR MAX TEMP:  90;


$$

SCZ027-028-034-036>038-045-046-048>050-GAZ119-141-291900-
...LAKE AND SUPPLEMENTAL COASTAL OBSERVATIONS...

STATION/POSITION TIME  TEMP    WIND        PRES    WAVE   SWELL
                       AIR SEA DIR/SP/G            HT/PER HT/PER/DIR
                 (UTC) (F)     (DEG/KT/KT) (MB)    (FT/S) (FT/S/D)
WINYAH BAY       1700   80     210/  3     1018.0S
LAKE MURRAY      1700   81      CALM  /  3 1019.3F
ACE BASIN NERRS  1700   85      10/  3     1018.0F
FORT PULASKI     1800   83 86   60/ 12/ 14 1018.2F
SAPELO ISLAND    1800   89      60/ 12     1017.0S

$$

ANZ835-935-AMZ111-154-330-350-352-354-370-450-454-472-291900-
...C-MAN AND BUOY OBSERVATIONS...

STATION/POSITION TIME  TEMP    WIND        PRES    WAVE   SWELL
                       AIR SEA DIR/SP/G            HT/PER HT/PER/DIR
                 (UTC) (F)     (DEG/KT/KT) (MB)    (FT/S) (FT/S/D)
BUOY 41004       1750   83 85   50/  8/ 10 1017.5R   3/13   3/100/13
BUOY 41008       1750   83 85   80/ 12/ 14 1017.2R   3/14   3/110/14
FOLLY BEACH CMAN 1800   84      70/ 12/ 14 1018.3F
CAPERS NEARSHORE 1808   82 84   50/ 12/ 16 1017.9F
FRIPP NEARSHORE  1808   83 85   70/ 10/ 14 1017.4S


STATION/POSITION TIME  TEMP    WIND        PRES    WAVE   SWELL
                       AIR SEA DIR/SP/G            HT/PER HT/PER/DIR
                 (UTC) (F)     (DEG/KT/KT) (MB)    (FT/S) (FT/S/D)
5E ST. MARYS GA  1801      85                N/A     4/14   2/100/14
FRYING PAN BUOY  1800   83 85   30/ 10/ 14 1017.5F
BUOY 41025       1750   82 84   30/ 17/ 21 1017.3F   6/ 8   5/110/ 8
CAPE LOOKOUT NC  1800   83      40/ 16/ 18 1017.8S
BUOY 41002       1750   83 85  290/  8/ 10 1016.4S   4/12   5/100/12
BUOY 41010       NOT AVBL
ST AUGUSTINE FL  1800   81 85   70/  8/ 10 1017.2R


$$




USA.gov is the U.S. government's official web portal to all federal, state and local government web resources and services.